Location: STAR School
(35.3054°N, 111.2976°W)
Time: 14:33:42
(UTC-07:00)

deb Explorer IX - Pass Details

Date: 23 May 2019
Orbit: 536 x 1115 km, 38.8° (Epoch: 24 June)

Event Time Altitude Azimuth Distance (km) Brightness Sun altitude
Exits shadow 02:13:13 23° 82° (E) 1,159 ? -28.2°
Drops below altitude 10° 02:14:56 10° 76° (ENE) 1,819 ? -28.0°
Sets 02:17:16 0° 73° (ENE) 2,759 ? -27.8°
